Flag for Monaco Weather past 2 weeks in Monaco, Monaco

Now
54 °F

Clear.


Feels Like: 52 °F
Forecast: 52 / 69 °F
Wind: 6 mph from North

Location: Nice Airport

Current Time: Mar 29, 2015 at 3:42:14 AM

Latest Report: Mar 29, 2015 at 3:00 AM


Visibility: 10 mi

Pressure: 29.92 "Hg

Humidity: 51%

Dew point: 36 °F

Location of MonacoLocation

Historic Weather in Monaco — Graph

°F

Monaco temperature yesterday

Maximum temperature yesterday: 61 °F (at 9:30 AM)
Minimum temperature yesterday: 50 °F (at 6:30 AM)
Average temperature yesterday: 56 °F

Past Weeks' High & Low Weather Summary

 TemperatureHumidityPressure
High64 °F (Mar 27, 6:00 PM)94% (Mar 26, 1:00 AM)30.24 "Hg (Mar 26, 1:00 AM)
Low45 °F (Mar 16, 6:00 AM)36% (Mar 28, 9:00 AM)29.39 "Hg (Mar 25, 12:00 PM)
Average55 °F68%29.96 "Hg
* Reported Mar 14 1:16 AM — Mar 29 1:30 AM, Monaco, Weather by CustomWeather, © 2015

Note: Actual official high and low records may vary slightly from our data, if they occured in-between our weather recording intervals... More about our weather records

Advertising

Monaco weather history for previous 24 hours

 ConditionsComfort  
Time TempWeatherWind HumidityBarometerVisibility
1:30 AM
Sun, Mar 29
54 °FClear.5 mph51%29.92 "Hg10 mi
1:00 AM54 °FPassing clouds.3 mph51%29.95 "HgN/A
12:30 AM55 °FClear.5 mph47%29.95 "Hg10 mi
12:00 AM55 °FClear.8 mph47%29.95 "Hg10 mi
11:30 PM
Sat, Mar 28
55 °FClear.8 mph47%29.95 "Hg10 mi
11:00 PM55 °FClear.9 mph47%29.95 "Hg10 mi
10:00 PM55 °FClear.9 mph55%29.95 "Hg10 mi
9:30 PM55 °FClear.6 mph59%29.98 "Hg10 mi
9:00 PM55 °FClear.5 mph59%29.95 "Hg10 mi
8:30 PM57 °FClear.3 mph63%29.98 "Hg10 mi
8:00 PM57 °FClear.2 mph67%29.98 "Hg10 mi
7:30 PM57 °FClear.2 mph67%29.98 "Hg10 mi
7:00 PM57 °FClear.3 mph77%29.98 "Hg10 mi
6:30 PM57 °FSunny.2 mph72%29.98 "Hg10 mi
6:00 PM57 °FSunny.1 mph72%29.98 "Hg10 mi
5:30 PM59 °FSunny.5 mph68%29.98 "Hg10 mi
5:00 PM59 °FSunny.3 mph63%29.98 "Hg10 mi
4:30 PM59 °FSunny.5 mph59%29.98 "Hg10 mi
4:00 PM59 °FSunny.5 mph55%29.98 "Hg10 mi
3:30 PM61 °FSunny.8 mph52%29.98 "Hg10 mi
3:00 PM61 °FSunny.8 mph59%30.01 "Hg10 mi
2:30 PM61 °FSunny.6 mph59%30.01 "Hg10 mi
2:00 PM61 °FSunny.8 mph63%30.01 "Hg10 mi
1:30 PM61 °FSunny.9 mph72%30.01 "Hg10 mi
1:00 PM61 °FSunny.8 mph68%30.04 "Hg10 mi
12:30 PM61 °FSunny.7 mph63%30.04 "Hg10 mi
12:00 PM59 °FSunny.7 mph68%30.04 "Hg10 mi
11:30 AM61 °FSunny.5 mph63%30.04 "Hg10 mi
11:00 AM61 °FSunny.3 mph59%30.04 "Hg10 mi
10:30 AM61 °FSunny.3 mph59%30.04 "Hg10 mi
10:00 AM61 °FSunny.3 mph48%30.04 "Hg10 mi
9:30 AM61 °FPassing clouds.3 mph45%30.04 "HgN/A
9:00 AM59 °FPassing clouds.5 mph36%30.01 "HgN/A
8:30 AM55 °FSunny.8 mph41%30.01 "Hg10 mi
8:00 AM54 °FSunny.9 mph44%30.01 "Hg10 mi
7:30 AM54 °FSunny.9 mph41%30.01 "Hg10 mi
7:00 AM52 °FSunny.9 mph44%29.98 "Hg10 mi
6:30 AM50 °FSunny.12 mph47%29.98 "Hg10 mi
6:00 AM52 °FClear.12 mph44%29.98 "Hg10 mi
5:30 AM52 °FClear.10 mph47%29.95 "Hg10 mi
5:00 AM52 °FClear.14 mph47%29.95 "Hg10 mi
4:30 AM52 °FClear.14 mph47%29.95 "Hg10 mi
4:00 AM52 °FClear.15 mph50%29.95 "Hg10 mi
3:30 AM52 °FClear.15 mph50%29.95 "Hg10 mi
3:00 AM54 °FClear.15 mph51%29.95 "Hg10 mi
Weather by CustomWeather, © 2015

See weather overviewHow to use our weather pages